Regional Weather Roundup
Issued by NWS Grand Forks, ND

Home | Current Version | Previous Version | Graphics & Text | Print | Product List | Glossary On
Versions: 1 2 3 4 5 6 7 8 9 10 11 12 13 14 15 16 17 18 19 20 21 22 23 24 25 26 27 28 29 30 31 32 33 34 35 36 37 38 39 40 41 42 43 44 45 46 47 48 49 50
227
ASUS43 KFGF 231131
RWRFGF
PRAIRIE TO PINES  WEATHER ROUNDUP
NATIONAL WEATHER SERVICE EASTERN NORTH DAKOTA/GRAND FORKS ND
600 AM CDT SAT JUL 23 2016

 **SATELLITE DATA USED TO AUGMENT SKY COVER AT AUTOMATED STATIONS**
 *****  WEATHER ACROSS EASTERN NORTH DAKOTA  *****

CITY           SKY/WX    TMP DP  RH WIND       PRES   REMARKS
GRAND FORKS    CLOUDY    71  62  73 S6        29.87R
GRAND FRKS AFB CLOUDY    70  62  77 S7        29.89R
GRAND FRKS NWS   N/A     68 N/A N/A SW2         N/A
DEVILS LAKE    RAIN      69  63  81 S5        29.89F
FARGO          CLOUDY    76  61  59 SE10      29.86R
WAHPETON ARPT  CLOUDY    73  64  73 SE6       29.84F
$$

 ***** WEATHER ACROSS CENTRAL AND WESTERN NORTH DAKOTA  *****

CITY           SKY/WX    TMP DP  RH WIND       PRES   REMARKS
BISMARCK       CLOUDY    70  63  78 NE9       29.82F
MINOT          TSTM      68  62  81 SE12      29.78S
JAMESTOWN      CLOUDY    67  64  90 NE7       29.84F
MINOT AFB      TSTM      66  63  88 W14G29    29.83R FOG
GARRISON         N/A     68  64  87 E13       29.77F
WILLISTON      MOCLDY    69  62  78 SW10      29.80R
DICKINSON      CLOUDY    64  60  87 N7        29.84F
HETTINGER      PTCLDY    64  60  87 SE9       29.81F
$$

 *****  OTHER AIRPORT OBSERVATIONS IN OUR AREA  *****

CITY           SKY/WX    TMP DP  RH WIND       PRES   REMARKS
WALHALLA       FAIR      64  61  88 SE3       29.87S
GRAFTON AIRPOR FAIR      68  61  77 SE7       29.87S
VALLEY CITY AR   N/A     70  70 100 CALM      29.87F
CANDO          PTSUNNY   66  66 100 SE6       29.89F
CAVALIER APRT  FAIR      66  59  77 SE3       29.87F
GWINNER        FAIR      72  70  94 E9        29.82F
SHEYENNE NWR     N/A     71  68  89 E7        29.95S
ROLLA            N/A     66  64  94 S9G18     29.85F
 ***** THE ABOVE OBSERVATIONS ARE NON NWS ARE NOT QUALITY
       CONTROLLED AND MAY MIS-REPORT RAIN FOR SNOW...
$$

  *****  WEATHER ACROSS NORTHERN MINNESOTA  *****

CITY           SKY/WX    TMP DP  RH WIND       PRES   REMARKS
FLAG ISLAND    MOCLDY    70  57  64 E5        29.93F
WARROAD        CLOUDY    70  64  83 E7        29.94F
ROSEAU         CLOUDY    64  59  82 SE7       29.92F
HALLOCK        CLOUDY    66  59  77 E13       29.85F
THF RVR FALLS  LGT RAIN  68  63  84 E10       29.89F
BAUDETTE       CLOUDY    62  60  93 E6        29.96F
WASKISH        CLOUDY    61  59  94 E5        29.96S
CROOKSTON      CLOUDY    70  63  78 SE9       29.87S
STEPHEN NDAWN    N/A     66  59  77 E5          N/A
GREENBUSH NDAW   N/A     64  59  82 E6          N/A
$$
  *****  WEATHER ACROSS CENTRAL AND WEST MINNESOTA  *****

CITY           SKY/WX    TMP DP  RH WIND       PRES   REMARKS
FOSSTON        CLOUDY    66  61  82 E9        29.88F
BEMIDJI        CLOUDY    66  63  88 E6        29.96F
PARK RAPIDS    CLOUDY    70  62  76 E9        29.95F
ELBOW LAKE     FAIR      73  69  87 SE14      29.87F
WADENA         CLOUDY    66  63  88 E6        29.93F
DETROIT LAKES  CLOUDY    73  55  53 SE14      29.91F
MOORHEAD       PTCLDY    73  61  64 SE5       29.87S
FERGUS FALLS   CLOUDY    75  64  69 SE13G18   29.86F
MORRIS MN      CLOUDY    73  66  78 E10       29.85F
STAPLES        CLOUDY    68  61  77 E3        29.94F
$$
  *****  WEATHER ELSEWHERE ACROSS MINNESOTA  *****

CITY           SKY/WX    TMP DP  RH WIND       PRES   REMARKS
DULUTH         CLEAR     63  59  87 CALM      30.01S
INTRNTL FALLS  CLOUDY    57  56  96 CALM      29.98F
ELY            CLOUDY    55  54  94 CALM      30.02S
CLOQUET        CLEAR     61  57  88 CALM      30.00F
WHEATON        CLOUDY    72  68  88 E6        29.85F
BRAINERD       CLOUDY    68  62  81 CALM      29.96F
HIBBING        PTCLDY    54  54 100 CALM      30.00S FOG
ALEXANDRIA     CLOUDY    73  67  81 E10       29.94F
SAINT CLOUD    CLOUDY    71  67  87 E6        29.95F
MINNEAPOLIS    MOCLDY    76  67  73 E7        29.95F
$$

  *****  WEATHER ACROSS SOUTH DAKOTA  *****

CITY           SKY/WX    TMP DP  RH WIND       PRES   REMARKS
SIOUX FALLS    TSTM      74  72  93 NW10G17   29.85R VSB 1
BROOKINGS      CLOUDY    79  75  89 E10       29.84F
WATERTOWN      CLOUDY    76  74  93 E10       29.84F
HURON          TSTM      71  69  93 W13G24    29.81S FOG
SISSETON         N/A     71  67  87 S3        29.83F
ABERDEEN       MOCLDY    74  68  81 E9        29.79F
MITCHELL       LGT RAIN  72  70  93 E7        29.82R
PIERRE         CLOUDY    76  72  87 E7        29.74F
MOBRIDGE       CLOUDY    73  66  78 S7        29.79R THUNDER
RAPID CITY     MOCLDY    67  56  67 SW7       29.83F
$$

  *****  SOME WEATHER IN NEARBY STATES *****

CITY           SKY/WX    TMP DP  RH WIND       PRES   REMARKS
GLASGOW MT     PTCLDY    62  54  74 W10       29.84S
GREAT FALLS MT CLEAR     58  41  53 SW15      30.02S
CHEYENNE WY    PTCLDY    66  44  45 SW12      30.13F
SCOTTSBLUFF NE MOCLDY    61  59  93 NW8       29.95S
OMAHA NE       HVY RAIN  82  72  71 S14       29.87R
DES MOINES IA  CLOUDY    79  76  90 S5        29.91S
DAVENPORT IA   CLEAR     74  73  97 E5        29.97F FOG
CHICAGO IL     MOCLDY    78  75  90 W5        29.98R
EAU CLAIRE WI  CLEAR     66  66 100 NE3       29.98S FOG
LA CROSSE WI   CLOUDY    76  74  93 E3        29.96S
$$

  *****  SOME NATIONAL WEATHER *****

CITY           SKY/WX    TMP DP  RH WIND       PRES   REMARKS
LA GUARDIA NY  MOSUNNY   84  64  50 NW13      29.85R
RALEIGH NC     PTCLDY    73  71  93 CALM      29.99S
ATLANTA GA     PTCLDY    76  72  87 CALM      30.04R
NEW ORLEANS LA PTCLDY    80  76  87 CALM      29.99S
OKLAHOMA CITY  PTCLDY    73  67  81 S8        29.97R
ALBUQUERQUE NM PTCLDY    71  50  47 SE5       30.16F
SALT LAKE CITY PTCLDY    67  39  35 W6        30.09S
LOS ANGELES CA CLOUDY    70  63  78 E5        29.80S
BOISE ID       CLEAR     61  41  47 W6        30.12R
SEATTLE WA     MOCLDY    58  55  90 CALM      30.27S
$$

*** WEATHER ACROSS MANITOBA...SASKATCHEWAN AND ONTARIO ***
                ***ONTARIO***

CITY           SKY/WX    TMP DP  RH WIND       PRES   REMARKS
GERALDTON      PTCLDY    61  59  94 NW2       30.01R
THUNDER BAY    MOCLDY    59  59 100 SW3       30.01R
SIOUX LOOKOUT  MOCLDY    54  54 100 NE3       30.00F
TORONTO        PTCLDY    73  59  60 NW9       29.90S
BIG TROUT LK   CLEAR     52  46  82 S5        30.03S
PICKLE LAKE    PTCLDY    55  55 100 SE3       30.03  FOG
DRYDEN         CLEAR     61  59  94 E5        30.00F
KENORA         MOCLDY    63  54  72 E8        29.98F
$$
                *** MANITOBA***

CITY           SKY/WX    TMP DP  RH WIND       PRES   REMARKS
BRANDON        CLOUDY    64  61  88 E5        29.83F
DAUPHIN        LGT RAIN  63  61  94 SE6       29.85F
ISLAND LAKE    PTCLDY    57  55  94 CALM      29.95F
PILOT MOUND      N/A     64  61  88 SE12        N/A
THE PAS        CLOUDY    63  61  94 SE8       29.78F
THOMPSON       PTCLDY    52  48  87 SE3       29.85
WINNIPEG       MOCLDY    68  59  73 SE12G17   29.89F
LYNN LAKE      LGT RAIN  54  52  94 MISG      29.73F
CHURCHILL      MOCLDY    48  45  87 S10       29.87F
GILLAM         PTCLDY    46  41  81 S7        29.92F
$$
                ***SASKATCHEWAN***

CITY           SKY/WX    TMP DP  RH WIND       PRES   REMARKS
ESTEVAN        MOCLDY    64  63  94 W6        29.82F
KINDERSLEY     TSTM      57  57 100 NW15G23   29.79S
LLOYDMINSTER   CLOUDY    59  54  82 W16       29.81S
PRINCE ALBERT  LGT RAIN  63  63 100 SE6       29.78
REGINA         LGT RAIN  63  59  88 SE22      29.74R
YORKTON        LGT RAIN  61  55  82 E16G22    29.78F
N. BATTLEFORD  CLOUDY    61  59  94 N3        29.81S
LA RONGE       LGT RAIN  61  59  94 S6        29.77S
SASKATOON      MOCLDY    63  63 100 NE9       29.75F
SWIFT CURRENT  CLOUDY    57  57 100 W16G23    29.77R
$$
NOTE: THESE ARE AUTOMATED STATIONS WITH LIMITED QUALITY CONTROL
      "FAIR" INDICATES FEW OR NO CLOUDS BELOW 12,000 FEET WITH NO
      SIGNIFICANT WEATHER AND/OR OBSTRUCTIONS TO VISIBILITY.
      SKY/WX - SKY CONDITION AND SIGNIFICANT WEATHER.
      TMP - AIR TEMPERATURE.    DP   - DEWPOINT TEMPERATURE.
      RH  - RELATIVE HUMIDITY.  PRES - PRESSURE.
      HX  - HEAT INDEX.         WCI  - WIND CHILL INDEX.
$




USA.gov is the U.S. government's official web portal to all federal, state and local government web resources and services.